"Pseudo-MPEC" for ZTF10CF

Created 2026 Mar 13 0:35:27 UT using Find_Orb

Click here for an explanation of pseudo-MPECs

 
 Astrometry: 
     ZTF10CF*0C2026 03 11.34941213 28 42.263-01 23 05.26   ~3BDo 18.80iUNEOCPI41
     ZTF10CF 0C2026 03 11.34975913 28 41.865-01 23 19.16   ~3BDo 18.80iUNEOCPI41
     ZTF10CF 0C2026 03 11.41967713 27 23.919-02 10 01.10   ~3BDo 19.21gUNEOCPI41
     ZTF10CF 0C2026 03 11.42002413 27 23.561-02 10 16.38   ~3BDo 19.21gUNEOCPI41
     ZTF10CF KB2026 03 11.69273113 22 26.904-05 21 20.81   ~3BI5 18.7 GWNEOCP900
     ZTF10CF KB2026 03 11.69593413 22 27.019-05 23 53.95   ~3C7K 18.6 GVNEOCPP13
     ZTF10CF KB2026 03 11.70015813 22 17.786-05 26 44.45   ~3BI5 18.7 GWNEOCP900
     ZTF10CF KB2026 03 11.70260013 22 18.910-05 28 44.83   ~3C7K 18.8 GVNEOCPP13
     ZTF10CF KB2026 03 11.71171213 22 07.826-05 35 23.46   ~3C7K 18.8 GVNEOCPP13
     ZTF10CF KB2026 03 11.71854613 21 59.525-05 40 22.91   ~3C7K 18.5 GVNEOCPP13
     ZTF10CF KC2026 03 11.88596413 18 46.061-07 45 38.27   ~3BMZ 18.9 GXNEOCPL18
     ZTF10CF KC2026 03 11.89214913 18 38.201-07 50 23.32   ~3BMZ 19.4 GXNEOCPL18
     ZTF10CF KC2026 03 11.89830913 18 30.485-07 55 06.20   ~3BMZx19.0 GXNEOCPL18
     ZTF10CF KB2026 03 11.90011913 18 29.18 -07 56 27.7    ~3BMK 19.0 GVNEOCPG02
     ZTF10CF KB2026 03 11.90666813 18 20.88 -08 01 28.8    ~3BMK 19.4 GVNEOCPG02
     ZTF10CF 0C2026 03 12.03297513 15 39.948-09 39 46.15   ~3C1K 19.1 GWNEOCPJ95
     ZTF10CF 0C2026 03 12.03579613 15 36.168-09 41 59.50   ~3C1K 18.9 GWNEOCPJ95
     ZTF10CF 0C2026 03 12.03810813 15 33.139-09 43 49.08   ~3C1K 18.6 GWNEOCPJ95
     ZTF10CF 0C2026 03 12.04110113 15 29.122-09 46 11.42   ~3C1K 18.7 GWNEOCPJ95
     ZTF10CF KB2026 03 12.06103813 15 02.57 -10 01 42.2    ~3C2K       XNEOCP958
     ZTF10CF KB2026 03 12.06650713 14 55.19 -10 06 02.1    ~3C2K 19.5 GXNEOCP958
     ZTF10CF KB2026 03 12.07196613 14 47.79 -10 10 23.0    ~3C2K       XNEOCP958
     ZTF10CF |C2026 03 12.18923013 12 21.220-11 40 06.70   ~3C55 18.7 GVNEOCP807
     ZTF10CF |C2026 03 12.19080013 12 18.990-11 41 23.80   ~3C55 18.6 GVNEOCP807
     ZTF10CF |C2026 03 12.19238013 12 16.770-11 42 41.40   ~3C55 18.6 GVNEOCP807
     ZTF10CF |C2026 03 12.19395013 12 14.540-11 43 58.70   ~3C55 18.8 GVNEOCP807
     ZTF10CF KC2026 03 12.29854613 09 47.42 -13 14 54.4    ~3C7Z 18.7 GVNEOCPH21
     ZTF10CF KC2026 03 12.29978113 09 45.62 -13 15 56.3    ~3C7Z 18.7 GVNEOCPH21
     ZTF10CF KC2026 03 12.30101713 09 43.82 -13 16 58.4    ~3C7Z 18.7 GVNEOCPH21
     ZTF10CF KC2026 03 12.30225213 09 42.00 -13 18 00.2    ~3C7Z 18.6 GVNEOCPH21
     ZTF10CF 1C2026 03 12.32550013 09 13.450-13 37 05.16   ~3C85 18.60GVNEOCPI52
     ZTF10CF 1C2026 03 12.32567013 09 13.172-13 37 13.22   ~3C85 18.70GVNEOCPI52
     ZTF10CF 1C2026 03 12.32584013 09 12.938-13 37 21.90   ~3C85 18.54GVNEOCPI52
     ZTF10CF 1C2026 03 12.32601713 09 12.701-13 37 30.54   ~3C85 18.16GVNEOCPI52
     ZTF10CF KB2026 03 12.41226213 07 06.065-14 50 54.96   ~3CCK 18.9 GVNEOCPU52
     ZTF10CF KB2026 03 12.42545513 06 45.948-15 02 10.97   ~3CCK 20.5 GVNEOCPU52
     ZTF10CF KB2026 03 12.59070513 02 51.442-17 24 53.87   ~3CF5 19.2 GXNEOCPQ06
     ZTF10CF KB2026 03 12.59839813 02 39.197-17 31 41.30   ~3CF5 19.2 GXNEOCPQ06
     ZTF10CF KB2026 03 12.60609213 02 26.890-17 38 29.34   ~3CF5 19.2 GXNEOCPQ06
     ZTF10CF KB2026 03 12.65320813 01 10.490-18 20 12.80   ~3CGo 18.2 GWNEOCP900
     ZTF10CF KB2026 03 12.65928813 01 00.499-18 25 37.49   ~3CGo 18.5 GWNEOCP900

Station data:
(807) Cerro Tololo Observatory, La Serena  (S30.169133 W70.805900)  Chile.
   Observer R. Holmes. 0.61-m f/6.5 astrograph + CCD.
(900) Moriyama  (N35.049753 E135.989940)  Japan.  Observer Y. Ikari. 0.26-m
   f/7.0 reflector + CCD.
(958) Observatoire de Dax  (N43.693381 W1.030530)  France.  Observer P.
   Dupouy. 0.32-m Schmidt-Cassegrain.
(G02) KYSUCE Observatory, Kysucke Nove Mesto  (N49.307313 E18.765390)
   Slovakia.  Observer M. Urbanik. 0.40-m f/4.4 reflector + CCD.
(H21) Astronomical Research Observatory, Westfield  (N39.483054 W87.968270)
   US/Illinois.  Observer R. Holmes. Measurers S. Foglia, L. Buzzi, T.
   Linder, R. Holmes. 0.40-m f/5.32 astrograph + CCD.
(I41) Palomar Mountain--ZTF  (N33.357336 W116.859780)  US/California.
   Observers B. T. Bolin, Z. T. F. Collaboration. Measurers B. T. Bolin,
   Z.-Y. Lin, F. J. Masci. 1.2-m f/2.4 Schmidt.
(I52) Steward Observatory, Mt. Lemmon Station  (N32.442570 W110.788920)
   US/Arizona. Measurers T. Beuden, V. F. Carvajal, D. Fay, J. B. Fazekas, D.
   C. Fuls, A. R. Gibbs, A. D. Grauer, H. Gröller, J. K. Hogan, R. A.
   Kowalski, S. M. Larson, G. J. Leonard, D. Rankin, R. L. Seaman, F. C.
   Shelly, K. W. Wierzchoś. 1.0-m prime focus + CCD.
(J95) Great Shefford  (N51.474969 W1.447003)  UK/England.  Observer P.
   Birtwhistle. 0.41-m f/6.3 Schmidt-Cassegrain + CCD.
(L18) QOS Observatory, Zalistci  (N48.848292 E26.718280)  Ukraine.  Observers
   O. V. Kravchenko, Y. V. Tanasiychuk. Measurer A. M. Kozhukhov. 0.50-m
   f/3.8 reflector + CCD.
(P13) Baihuashan Observatory, Beijing  (N39.837554 E115.573330)  China.
   Observers Z. Wang, B. Liu. Measurer Z. Wang. 0.28-m f/2.2 reflector + CMO.
(Q06) Tarui Observatory, Tarui  (N35.394791 E136.495470)  Japan.  Observer H.
   Watanabe. 0.35-m f/1.9 Schmidt-Cassegrain + CMO.
(U52) Shasta Valley Observatory, Grenada  (N41.579164 W122.549000)
   US/California.  Observer J. E. Rogers. Measurers J. E. Rogers, D. Parrott.
   0.30-m Helin Telescope + CCD.

Orbital elements:  ZTF10CF
   Perihelion 2026 May 12.296434 +/- 0.089 TT =  7:06:51.9 (JD 2461172.796434)
Epoch 2026 Mar 12.0 TT = JDT 2461111.5   Earth MOID: 0.0293      AutoNEOCP
M 311.121184642 +/- 0.12            (J2000 ecliptic)
n   0.797416948 +/- 0.00089         Peri.  251.135699 +/- 0.09
a   1.151716904 +/- 0.000857        Node   352.009718 +/- 0.0013
e   0.21705914 +/- 0.000505         Incl.   30.152945 +/- 0.039
P   1.236/451.449d         H 24.98  G  0.15   U  8.0
q 0.901726222 +/- 9.82e-5    Q 1.401707586 +/- 0.00162
40 of 41 observations 2026 Mar. 11-12 (31.4 hr); mean residual 0".53
Residuals in arcseconds: 
260311 I41  .05-  .10-    260311 G02  .50-  1.7-    260312 H21  .26+  .22-    
260311 I41  .30-  .22-    260312 J95  .09+  .12+    260312 H21  .09+  .12-    
260311 I41  .19+  1.4+    260312 J95  .37-  .42+    260312 I52  .25+  .62-    
260311 I41  .70+  .16+    260312 J95  .32+  .44+    260312 I52  .15-  .11-    
260311 900  .33+  .26+    260312 J95  .14-  .05+    260312 I52  .10+  .21-    
260311 P13  .33+  .63-    260312 958  .86-  .51-    260312 I52  .46+  .07+    
260311 900  .30-  .49+    260312 958  .43-  .30+    260312 U52  .81+  .13-    
260311 P13  .22-  .41-    260312 958  .29-  .08-    260312 U52  .51-  .74-    
260311 P13  .36-  .34-    260312 807  .24+  .09+    260312 Q06  .31-  .29+    
260311 P13  .15+  .18-    260312 807  .01+  .07+    260312 Q06  .05+  .22+    
260311 L18  .34+  .70-    260312 807  .16+  .06+    260312 Q06  .28+  .03-    
260311 L18  .78-  2.3-    260312 807  .01-  .11-    260312 900  .29-  .14+    
260311 L18( .17+  2.5-)   260312 H21  .03+  .04-    260312 900  .27-  .43-    
260311 G02  .07+  1.8-    260312 H21  .13+  .07-    

Ephemerides (geocentric):
Date (UTC) HH   RA             Dec           delta  r     elong  mag " sig PA
---- --------  ------------   ------------  ------ ------ -----  --- --------
2026 03 13 01  12 50 23.737   -24 09 07.30  .03325 1.0217 146.6 19.0 .227 140
2026 03 13 02  12 49 09.565   -24 47 42.23  .03318 1.0216 146.3 19.0 .223 137
2026 03 13 03  12 47 54.322   -25 26 23.65  .03312 1.0215 145.9 19.0 .221 134
2026 03 13 04  12 46 37.990   -26 05 10.78  .03306 1.0213 145.6 19.0 .218 131
2026 03 13 05  12 45 20.549   -26 44 02.83  .03301 1.0212 145.3 19.0 .217 127
2026 03 13 06  12 44 01.982   -27 22 58.97  .03296 1.0210 144.9 19.0 .216 123
2026 03 13 07  12 42 42.268   -28 01 58.39  .03292 1.0209 144.6 19.0 .216 120
2026 03 13 08  12 41 21.389   -28 41 00.24  .03289 1.0208 144.2 19.0 .217 116
2026 03 13 09  12 39 59.325   -29 20 03.66  .03286 1.0206 143.8 19.1 .219 112
2026 03 13 10  12 38 36.056   -29 59 07.79  .03283 1.0205 143.4 19.1 .223 108
2026 03 13 11  12 37 11.563   -30 38 11.75  .03281 1.0203 143.0 19.1 .227 104
2026 03 13 12  12 35 45.824   -31 17 14.67  .03279 1.0202 142.6 19.1 .233 100
2026 03 13 13  12 34 18.820   -31 56 15.65  .03278 1.0201 142.2 19.1 .240  96
2026 03 13 14  12 32 50.529   -32 35 13.81  .03278 1.0199 141.8 19.1 .249  93
2026 03 13 15  12 31 20.931   -33 14 08.23  .03278 1.0198 141.3 19.1 .258  89
2026 03 13 16  12 29 50.006   -33 52 58.03  .03278 1.0196 140.9 19.1 .269  86
2026 03 13 17  12 28 17.731   -34 31 42.30  .03280 1.0195 140.4 19.1 .281  83
2026 03 13 18  12 26 44.086   -35 10 20.15  .03281 1.0194 140.0 19.2 .294  80
2026 03 13 19  12 25 09.048   -35 48 50.68  .03283 1.0192 139.5 19.2 .308  78
2026 03 13 20  12 23 32.598   -36 27 13.00  .03286 1.0191 139.1 19.2 .322  75
2026 03 13 21  12 21 54.712   -37 05 26.23  .03289 1.0189 138.6 19.2 .338  73
2026 03 13 22  12 20 15.370   -37 43 29.49  .03293 1.0188 138.1 19.2 .354  71
2026 03 13 23  12 18 34.549   -38 21 21.91  .03297 1.0187 137.6 19.2 .372  69
2026 03 14 00  12 16 52.228   -38 59 02.63  .03301 1.0185 137.1 19.2 .389  68
2026 03 14 01  12 15 08.386   -39 36 30.81  .03307 1.0184 136.6 19.3 .408  66
2026 03 14 02  12 13 23.001   -40 13 45.61  .03312 1.0183 136.1 19.3 .427  65
2026 03 14 03  12 11 36.051   -40 50 46.21  .03318 1.0181 135.6 19.3 .446  63
2026 03 14 04  12 09 47.514   -41 27 31.81  .03325 1.0180 135.1 19.3 .466  62
2026 03 14 05  12 07 57.371   -42 04 01.62  .03332 1.0178 134.6 19.3 .486  61
2026 03 14 06  12 06 05.599   -42 40 14.87  .03340 1.0177 134.1 19.3 .507  60
2026 03 14 07  12 04 12.178   -43 16 10.81  .03348 1.0176 133.6 19.4 .527  60
2026 03 14 08  12 02 17.087   -43 51 48.71  .03357 1.0174 133.1 19.4 .548  59
2026 03 14 09  12 00 20.307   -44 27 07.85  .03366 1.0173 132.6 19.4 .570  58
2026 03 14 10  11 58 21.817   -45 02 07.54  .03375 1.0171 132.1 19.4 .591  58
2026 03 14 11  11 56 21.598   -45 36 47.11  .03386 1.0170 131.6 19.4 .613  57
2026 03 14 12  11 54 19.632   -46 11 05.92  .03396 1.0169 131.1 19.5 .635  57
2026 03 14 13  11 52 15.900   -46 45 03.34  .03407 1.0167 130.6 19.5 .657  56
2026 03 14 14  11 50 10.384   -47 18 38.76  .03419 1.0166 130.1 19.5 .679  56
2026 03 14 15  11 48 03.068   -47 51 51.61  .03431 1.0165 129.6 19.5 .701  56
2026 03 14 16  11 45 53.936   -48 24 41.33  .03443 1.0163 129.1 19.5 .723  56
2026 03 14 17  11 43 42.971   -48 57 07.40  .03456 1.0162 128.5 19.6 .745  56
2026 03 14 18  11 41 30.160   -49 29 09.29  .03469 1.0160 128.0 19.6 .767  55
2026 03 14 19  11 39 15.489   -50 00 46.55  .03483 1.0159 127.5 19.6 .789  55
2026 03 14 20  11 36 58.946   -50 31 58.70  .03497 1.0158 127.0 19.6 .810  55
2026 03 14 21  11 34 40.520   -51 02 45.30  .03511 1.0156 126.5 19.7 .832  55
2026 03 14 22  11 32 20.199   -51 33 05.97  .03526 1.0155 126.0 19.7 .854  55
2026 03 14 23  11 29 57.977   -52 03 00.29  .03542 1.0153 125.5 19.7 .875  55
2026 03 15 00  11 27 33.844   -52 32 27.93  .03558 1.0152 125.0 19.7 .897  56